Content
SEND FEEDBACK

Daily
Averages
Monthly
Summary
Mexico

PUEBLA - LOMAS DEL MÁRMOL, PUEBLA


Home > North America > Mexico > Puebla
Elevation: 6916 feet     Latitude: 18 58N     Longitude: 098 10W

WEATHER
 
SELECT A DAY
Number of Records: 121,150;   Date Range: 1/1/95 - 9/15/14
 
SHARE

PRINT THIS DATA

[ ← Previous Day ]
WEATHER ALMANAC - MARCH 19, 2013
[ Next Day → ]
[ °C ]   °F
Weather ElementAverageHighLow
Temperature64.3 °F81 °F (2:40 pm)41 °F (6:40 am)
Dewpoint29.4 °F37 °F (11:50 am)21.2 °F (1:46 pm)
Humidity28.7 %70 % (6:40 am)7 % (5:40 pm)
Barometer30.16 in30.37 in (9:46 am)29.62 in (5:40 pm)
Wind Speed6.1 mph16.1 mph (7:40 pm)
Weather ElementAverage
Visibility8.5 mi
Wind DirectionS (177.6 °)

Weather ElementTotal
Precipitation---
Heating Degree Days4 (Base 65)
Growing Degree Days11 (Base 50)
Averaged from 27 records on March 19, 2013
WEATHER CONDITIONS BREAKOUT
WIND DIRECTION BREAKOUT
WEATHER BY HOUR - MARCH 19, 2013
[ °C ]   °F
Local TimeTemperatureDewpointHumidityBarometerVisibilityWind DirectionWind SpeedGust SpeedPrecipitationEventsConditions
4:57 AM44.6 °F32.0 °F61 %30.30 in8.0 miNW (320°)5.8 mphClear
5:40 AM42.8 °F32.0 °F66 %30.32 in8.0 miNNW (330°)8.1 mphClear
5:50 AM47.0 °F29.0 °F36 %29.93 in3.0 miCalm
6:40 AM41.0 °F32.0 °F70 %30.33 in8.0 miNNW (340°)5.8 mphPartly Cloudy
7:43 AM48.2 °F33.8 °F58 %30.35 in8.0 miNNW (340°)8.1 mphPartly Cloudy
8:40 AM57.2 °F35.6 °F44 %30.36 in8.0 miNNW (340°)5.8 mphPartly Cloudy
8:50 AM59.0 °F35.0 °F29 %30.03 in3.0 miCalmHaze
9:46 AM66.2 °F32.0 °F28 %30.37 in8.0 miENE (60°)4.6 mphPartly Cloudy
10:42 AM69.8 °F32.0 °F25 %30.36 in10.0 miESE (120°)3.5 mphPartly Cloudy
11:44 AM71.6 °F33.8 °F25 %30.34 in10.0 miCalmPartly Cloudy
11:50 AM76.0 °F37.0 °F15 %29.96 in12.0 miSouth (180°)2.2 mphClear
12:42 PM75.2 °F28.4 °F18 %30.30 in10.0 miSE (140°)8.1 mphPartly Cloudy
1:46 PM77.0 °F21.2 °F12 %30.27 in10.0 miSW (230°)10.4 mphPartly Cloudy
2:40 PM81.0 °F32.0 °F9 %29.77 in9.0 miSSW (200°)4.5 mphHaze
2:44 PM78.8 °F30.2 °F17 %30.23 in10.0 miSouth (170°)10.4 mphPartly Cloudy
3:40 PM78.8 °F24.8 °F14 %30.20 in10.0 miSSE (160°)8.1 mphPartly Cloudy
4:44 PM77.0 °F23.0 °F13 %30.20 in10.0 miSSW (210°)11.5 mphPartly Cloudy
5:40 PM78.0 °F25.0 °F7 %29.62 in9.0 miSSE (160°)2.2 mphHaze
5:42 PM75.2 °F23.0 °F14 %30.21 in10.0 miSSW (210°)11.5 mphPartly Cloudy
6:43 PM69.8 °F24.8 °F18 %30.22 in10.0 miSouth (190°)15.0 mphMostly Cloudy
7:40 PM68.0 °F21.2 °F17 %30.24 in10.0 miSSW (200°)16.1 mphMostly Cloudy
8:42 PM59.0 °F24.8 °F27 %30.28 in10.0 miSSE (160°)5.8 mphMostly Cloudy
8:50 PM67.0 °F25.0 °F11 %29.63 in3.0 miESE (110°)2.2 mphClear
9:41 PM59.0 °F26.6 °F29 %30.30 in10.0 miCalmScattered Clouds
10:40 PM53.6 °F28.4 °F38 %30.31 in10.0 miNE (50°)5.8 mphPartly Cloudy
11:40 PM55.4 °F33.8 °F44 %30.31 in10.0 miSSE (150°)6.9 mphPartly Cloudy
11:50 PM60.0 °F37.0 °F31 %29.70 in3.0 miENE (70°)2.2 mphClear
Hourly data recorded from MMPB, located miles away from Puebla - Lomas del Mármol, Puebla







STORIES FROM OUR PARTNERS